Location: Bonneuil
(46.1010°N, 2.9693°E)
Time: 11:40:35
(UTC+00:00)

Cosmos 2218 Rocket - Pass Details

Date: 09 April 2020
Orbit: 957 x 1005 km, 82.9° (Epoch: 03 June)

Event Time Altitude Azimuth Distance (km) Brightness Sun altitude
Rises 20:55:13 0° 348° (NNW) 3,668 7.8 -23.4°
Reaches altitude 10° 20:57:45 10° 345° (NNW) 2,723 7.1 -23.7°
Maximum altitude 21:03:52 61° 267° (W) 1,108 4.4 -24.5°
Enters shadow 21:07:10 28° 198° (SSW) 1,745 5.1 -24.9°
